Regional Weather Roundup
Issued by NWS

Home | Current Version | Previous Version | Graphics & Text | Print | Product List | Glossary On
Versions: 1 2 3 4 5 6 7 8 9 10 11 12 13 14 15 16 17 18 19 20 21 22 23 24 25 26 27 28 29 30 31 32 33 34 35 36 37 38 39 40 41 42 43 44 45 46 47 48 49 50
000
ASUS43 KOAX 280310
RWRNE

WEATHER ROUNDUP FOR NEBRASKA
NATIONAL WEATHER SERVICE OMAHA NE
1000 PM CDT THU AUG 27 2015

NOTES: SATELLITE DATA IS BEING USED TO AUGMENT CLOUD COVER ABOVE
       12000 FEET.
       "FAIR" INDICATES FEW OR NO CLOUDS BELOW 12,000 FEET WITH NO
       SIGNIFICANT WEATHER AND/OR OBSTRUCTIONS TO VISIBILITY.

  * THESE STATIONS DO NOT REPORT WEATHER SUCH AS RAIN...SNOW OR FOG.

NEZ001>004-019>022-054>056-280400-
NEBRASKA PANHANDLE

CITY           SKY/WX    TMP DP  RH WIND       PRES   REMARKS
SCOTTSBLUFF    PTCLDY    65  57  75 NE3       30.06R
ALLIANCE       CLEAR     64  56  75 N8        30.04R
CHADRON        CLEAR     64  57  78 CALM      30.03R
KIMBALL        PTCLDY    66  55  66 CALM      30.10S
SIDNEY         PTCLDY    65  54  67 NW7       30.07R
$$

NEZ057>060-069>072-079>082-280400-
SOUTHWEST NEBRASKA

CITY           SKY/WX    TMP DP  RH WIND       PRES   REMARKS
NORTH PLATTE   CLEAR     71  64  78 NW9       29.92R
IMPERIAL       CLOUDY    73  60  63 N10       29.97R
LEXINGTON      PTCLDY    72  68  87 NW5       29.85R
MCCOOK         CLOUDY    79  63  57 NW12      29.87R
OGALLALA       PTCLDY    72  61  69 N12       29.98S
$$

NEZ005>010-023>029-035>040-094-280400-
NORTH CENTRAL NEBRASKA

CITY           SKY/WX    TMP DP  RH WIND       PRES   REMARKS
AINSWORTH      MOCLDY    72  69  91 N6        29.93R
BROKEN BOW     PTCLDY    69  66  90 NW6       29.85S
O`NEILL        MOCLDY    72  71  97 E10       29.89F
ORD            CLOUDY    72  69  90 NW5       29.81F
THEDFORD       CLEAR     71  67  89 NW13      29.95R
$$

NEZ041-046>049-061>064-073>077-083>087-280400-
SOUTH CENTRAL NEBRASKA

CITY           SKY/WX    TMP DP  RH WIND       PRES   REMARKS
GRAND ISLAND   CLOUDY    75  65  70 S17       29.82R
AURORA         CLOUDY    75  64  69 S16G23    29.82R
HASTINGS       CLOUDY    74  66  76 S14       29.82F
HEBRON         CLOUDY    74  63  66 S18G25    29.83F
HOLDREGE       PTCLDY    72  64  75 S10       29.83R
KEARNEY *      CLOUDY    73  63  68 S18G24    29.82R
YORK           CLOUDY    75  64  69 S16G25    29.82S
$$

NEZ011>018-030>034-042>045-280400-
NORTHEAST NEBRASKA

CITY           SKY/WX    TMP DP  RH WIND       PRES   REMARKS
NORFOLK        LGT RAIN  71  69  93 SE8       29.91R
ALBION         CLOUDY    72  66  82 E14       29.86R
BLAIR            N/A     72  66  81 SE8       29.94R
COLUMBUS *     CLOUDY   N/A N/A N/A E13G20    29.86F
FREMONT        CLOUDY    75  65  72 E6        29.93R
TEKAMAH        CLOUDY    73  68  84 SE8       29.95R
WAYNE          DRIZZLE   72  68  88 E12G17    29.93R
$$

NEZ050>053-065>068-078-088>093-280400-
SOUTHEAST NEBRASKA

CITY           SKY/WX    TMP DP  RH WIND       PRES   REMARKS
LINCOLN        LGT RAIN  75  65  70 SE18G29   29.88F
OMAHA EPPLEY   CLOUDY    73  67  81 SE17      29.94R
BEATRICE       CLOUDY    74  64  70 S13       29.90F
FALLS CITY     LGT RAIN  70  67  90 SE12      29.95F
NEBRASKA CITY  CLOUDY    72  65  77 S12       29.95R
PLATTSMOUTH    CLOUDY    71  65  82 SE13G20   29.93S
$$

NEZ044-045-051>053-067-280400-
OMAHA AREA

CITY           SKY/WX    TMP DP  RH WIND       PRES   REMARKS
OMAHA EPPLEY   CLOUDY    73  67  81 SE17      29.94R
BLAIR            N/A     72  66  81 SE8       29.94R
FREMONT        CLOUDY    75  65  72 E6        29.93R
MILLARD        CLOUDY    73  68  82 SE8G16    29.92R
OFFUTT AFB     CLOUDY    72  67  84 SE13G22   29.93R
PLATTSMOUTH    CLOUDY    71  65  82 SE13G20   29.93S
WAHOO          LGT RAIN  73  67  84 SE13G20   29.90S
$$




USA.gov is the U.S. government's official web portal to all federal, state and local government web resources and services.